Weather History for Spearfish, SD

Change the Weather History Date:

Friday, February 8, 2013

  Actual Average (KEFC) Record (KEFC)
Temperature  
Mean Temperature 35 °F -  
Max Temperature 44 °F 37 °F 70 °F (1954)
Min Temperature 26 °F 11 °F -13 °F (1949)
Degree Days  
Heating Degree Days 30    
Moisture  
Dew Point 19 °F    
Average Humidity 56    
Maximum Humidity 86    
Minimum Humidity 29    
Precipitation  
Precipitation 0.00 in - - ()
Sea Level Pressure  
Sea Level Pressure 29.84 in    
Wind  
Wind Speed 5 mph (WSW)    
Max Wind Speed 9 mph    
Max Gust Speed -    
Visibility 10 miles    
Events      
Averages and records for this station are not official NWS values.
T = Trace of Precipitation, MM = Missing Value Source: NWS Daily Summary

Daily Weather History Graph

Daily Weather History Graph

Search for Another Location

Airport:

Trip Planner

Search our weather history database for the weather conditions in past years. The results will help you decide how hot, cold, wet, or windy it might be!

Date:

Astronomy

Feb. 08, 2013 Rise Set
Actual Time 8:04 AM CST 6:14 PM CST
Civil Twilight 7:34 AM CST 6:45 PM CST
Nautical Twilight 6:59 AM CST 7:19 PM CST
Astronomical Twilight 6:26 AM CST 7:53 PM CST
Moon 6:36 AM CST (2/8) 4:49 PM CST (2/8)
Length of Visible Light 11h 10m
Length of Day
10h 10m
Waning Crescent, 3% of the Moon is Illuminated
Feb 8
Waning Crescent
Feb 10
New
Feb 17
First Quarter
Feb 25
Full
Mar 4
Last Quarter

Hourly Weather History & Observations

Time (CST) Temp. Windchill Dew Point Humidity Pressure Visibility Wind Dir Wind Speed Gust Speed Precip Events Conditions
12:15 AM 35.6 °F 32.8 °F 15.8 °F 44% 29.90 in 10.0 mi East 3.5 mph - N/A   Clear
12:35 AM 32.0 °F 28.7 °F 17.6 °F 55% 29.90 in 10.0 mi South 3.5 mph - N/A   Clear
12:55 AM 37.4 °F 32.8 °F 15.8 °F 41% 29.89 in 10.0 mi East 5.8 mph - N/A   Clear
1:15 AM 37.4 °F 33.8 °F 15.8 °F 41% 29.89 in 10.0 mi North 4.6 mph - N/A   Clear
1:35 AM 37.4 °F - 14.0 °F 38% 29.88 in 10.0 mi Calm Calm - N/A   Clear
1:55 AM 35.6 °F 32.8 °F 15.8 °F 44% 29.88 in 10.0 mi ENE 3.5 mph - N/A   Clear
2:15 AM 37.4 °F 34.9 °F 14.0 °F 38% 29.88 in 10.0 mi South 3.5 mph - N/A   Clear
2:35 AM 35.6 °F 31.7 °F 15.8 °F 44% 29.87 in 10.0 mi SE 4.6 mph - N/A   Clear
2:55 AM 35.6 °F 31.7 °F 15.8 °F 44% 29.87 in 10.0 mi ESE 4.6 mph - N/A   Clear
3:15 AM 32.0 °F - 15.8 °F 51% 29.87 in 10.0 mi Calm Calm - N/A   Clear
3:35 AM 35.6 °F 32.8 °F 15.8 °F 44% 29.85 in 10.0 mi East 3.5 mph - N/A   Clear
3:55 AM 32.0 °F 27.5 °F 17.6 °F 55% 29.85 in 10.0 mi SSE 4.6 mph - N/A   Clear
4:15 AM 32.0 °F 26.4 °F 15.8 °F 51% 29.84 in 10.0 mi South 5.8 mph - N/A   Clear
4:35 AM 32.0 °F 26.4 °F 15.8 °F 51% 29.84 in 10.0 mi ESE 5.8 mph - N/A   Clear
4:55 AM 32.0 °F 27.5 °F 14.0 °F 48% 29.84 in 10.0 mi NE 4.6 mph - N/A   Clear
5:35 AM 32.0 °F 25.6 °F 15.8 °F 51% 29.85 in 10.0 mi WSW 6.9 mph - N/A   Clear
5:55 AM 28.4 °F 20.4 °F 17.6 °F 64% 29.85 in 10.0 mi West 8.1 mph - N/A   Clear
6:15 AM 28.4 °F 23.3 °F 17.6 °F 64% 29.85 in 10.0 mi SW 4.6 mph - N/A   Clear
6:35 AM 32.0 °F 25.6 °F 15.8 °F 51% 29.85 in 10.0 mi SSW 6.9 mph - N/A   Clear
6:55 AM 28.4 °F 24.6 °F 15.8 °F 59% 29.85 in 10.0 mi South 3.5 mph - N/A   Clear
7:15 AM 28.4 °F 23.3 °F 15.8 °F 59% 29.85 in 10.0 mi South 4.6 mph - N/A   Clear
7:35 AM 26.6 °F 17.5 °F 15.8 °F 64% 29.85 in 10.0 mi South 9.2 mph - N/A   Clear
7:55 AM 26.6 °F 21.2 °F 15.8 °F 64% 29.86 in 10.0 mi SSE 4.6 mph - N/A   Clear
8:15 AM 26.6 °F 21.2 °F 15.8 °F 64% 29.86 in 10.0 mi SSW 4.6 mph - N/A   Clear
8:35 AM 30.2 °F 22.6 °F 17.6 °F 60% 29.86 in 10.0 mi SW 8.1 mph - N/A   Clear
8:55 AM 30.2 °F 23.4 °F 15.8 °F 55% 29.87 in 10.0 mi SW 6.9 mph - N/A   Clear
9:15 AM 37.4 °F 32.1 °F 15.8 °F 41% 29.86 in 10.0 mi SW 6.9 mph - N/A   Clear
9:35 AM 39.2 °F 35.0 °F 15.8 °F 39% 29.86 in 10.0 mi West 5.8 mph - N/A   Clear
9:55 AM 41.0 °F 38.0 °F 15.8 °F 36% 29.86 in 10.0 mi WNW 4.6 mph - N/A   Clear
10:15 AM 44.6 °F 41.4 °F 14.0 °F 29% 29.86 in 10.0 mi WSW 5.8 mph - N/A   Clear
10:35 AM 41.0 °F 36.4 °F 15.8 °F 36% 29.86 in 10.0 mi NW 6.9 mph - N/A   Clear
10:55 AM 39.2 °F 34.2 °F 17.6 °F 42% 29.86 in 10.0 mi NW 6.9 mph - N/A   Clear
11:15 AM 39.2 °F 35.0 °F 17.6 °F 42% 29.85 in 10.0 mi North 5.8 mph - N/A   Clear
11:35 AM 35.6 °F 29.9 °F 24.8 °F 65% 29.85 in 10.0 mi NE 6.9 mph - N/A   Clear
11:55 AM 37.4 °F 33.8 °F 24.8 °F 60% 29.85 in 10.0 mi NE 4.6 mph - N/A   Clear
12:15 PM 37.4 °F 34.9 °F 23.0 °F 56% 29.84 in 10.0 mi NE 3.5 mph - N/A   Clear
12:35 PM 39.2 °F 37.0 °F 23.0 °F 52% 29.84 in 10.0 mi WNW 3.5 mph - N/A   Clear
12:55 PM 39.2 °F 35.0 °F 21.2 °F 49% 29.83 in 10.0 mi WNW 5.8 mph - N/A   Clear
1:15 PM 39.2 °F 33.6 °F 21.2 °F 49% 29.83 in 10.0 mi NW 8.1 mph - N/A   Clear
1:35 PM 37.4 °F 32.1 °F 19.4 °F 48% 29.83 in 10.0 mi NW 6.9 mph - N/A   Clear
1:55 PM 37.4 °F 33.8 °F 19.4 °F 48% 29.82 in 10.0 mi NW 4.6 mph - N/A   Clear
2:15 PM 37.4 °F 33.8 °F 19.4 °F 48% 29.81 in 10.0 mi WSW 4.6 mph - N/A   Clear
2:35 PM 39.2 °F 37.0 °F 21.2 °F 49% 29.81 in 10.0 mi SW 3.5 mph - N/A   Clear
2:55 PM 39.2 °F - 21.2 °F 49% 29.82 in 10.0 mi Calm Calm - N/A   Clear
3:15 PM 39.2 °F 35.9 °F 21.2 °F 49% 29.82 in 10.0 mi SSE 4.6 mph - N/A   Clear
3:55 PM 39.2 °F - 21.2 °F 49% 29.82 in 10.0 mi Calm Calm - N/A   Clear
4:15 PM 39.2 °F - 21.2 °F 49% 29.82 in 10.0 mi Calm Calm - N/A   Clear
4:35 PM 39.2 °F - 21.2 °F 49% 29.82 in 10.0 mi Calm Calm - N/A   Clear
4:55 PM 39.2 °F 35.0 °F 21.2 °F 49% 29.82 in 10.0 mi NW 5.8 mph - N/A   Clear
5:15 PM 37.4 °F 33.8 °F 23.0 °F 56% 29.82 in 10.0 mi NW 4.6 mph - N/A   Clear
5:35 PM 37.4 °F 34.9 °F 23.0 °F 56% 29.81 in 10.0 mi WNW 3.5 mph - N/A   Clear
5:55 PM 35.6 °F 31.7 °F 23.0 °F 60% 29.82 in 10.0 mi West 4.6 mph - N/A   Clear
6:15 PM 33.8 °F 29.6 °F 23.0 °F 65% 29.82 in 10.0 mi WSW 4.6 mph - N/A   Clear
6:35 PM 32.0 °F 27.5 °F 21.2 °F 64% 29.82 in 10.0 mi West 4.6 mph - N/A   Clear
6:55 PM 32.0 °F 27.5 °F 21.2 °F 64% 29.82 in 10.0 mi West 4.6 mph - N/A   Clear
7:35 PM 30.2 °F 24.3 °F 23.0 °F 75% 29.83 in 10.0 mi WSW 5.8 mph - N/A   Clear
7:55 PM 30.2 °F 23.4 °F 23.0 °F 75% 29.83 in 10.0 mi SW 6.9 mph - N/A   Clear
8:15 PM 26.6 °F - 23.0 °F 86% 29.82 in 10.0 mi Calm Calm - N/A   Clear
8:35 PM 26.6 °F 19.1 °F 21.2 °F 80% 29.82 in 10.0 mi SW 6.9 mph - N/A   Scattered Clouds
8:55 PM 26.6 °F 20.0 °F 23.0 °F 86% 29.83 in 10.0 mi WSW 5.8 mph - N/A   Partly Cloudy
9:15 PM 28.4 °F 22.2 °F 23.0 °F 80% 29.83 in 10.0 mi West 5.8 mph - N/A   Clear
9:35 PM 28.4 °F 21.2 °F 23.0 °F 80% 29.83 in 10.0 mi West 6.9 mph - N/A   Clear
9:55 PM 28.4 °F 20.4 °F 23.0 °F 80% 29.82 in 10.0 mi WSW 8.1 mph - N/A   Clear
10:15 PM 28.4 °F 20.4 °F 23.0 °F 80% 29.83 in 10.0 mi WSW 8.1 mph - N/A   Clear
10:35 PM 28.4 °F 22.2 °F 23.0 °F 80% 29.83 in 10.0 mi West 5.8 mph - N/A   Clear
10:55 PM 28.4 °F 21.2 °F 23.0 °F 80% 29.83 in 10.0 mi West 6.9 mph - N/A   Clear
11:15 PM 28.4 °F 22.2 °F 23.0 °F 80% 29.82 in 10.0 mi West 5.8 mph - N/A   Clear
11:55 PM 28.4 °F 22.2 °F 21.2 °F 74% 29.82 in 10.0 mi West 5.8 mph - N/A   Clear